| time (UTC) | temp F | wind direction | speed MPH | gust MPH | rain 1hr in | rain 24hr in | rain mn in | humidity % | barometer mb |
| 20260904201006 | 96 | 97 | 8.0 | 13.0 | 0.00 | 0.14 | 0.00 | 40 | 1014.1 |
| 20260904200503 | 96 | 76 | 6.0 | 12.0 | 0.00 | 0.14 | 0.00 | 41 | 1014.1 |
| 20260904200005 | 96 | 152 | 8.0 | 12.0 | 0.00 | 0.14 | 0.00 | 40 | 1014.2 |
| 20260904195504 | 95 | 179 | 6.0 | 14.0 | 0.00 | 0.14 | 0.00 | 41 | 1014.2 |
| 20260904195004 | 95 | 75 | 7.0 | 14.0 | 0.00 | 0.14 | 0.00 | 39 | 1014.4 |
| 20260904194523 | 96 | 101 | 7.0 | 14.0 | 0.00 | 0.14 | 0.00 | 40 | 1014.5 |
| 20260904194003 | 96 | 105 | 7.0 | 14.0 | 0.00 | 0.14 | 0.00 | 39 | 1014.6 |
| 20260904193510 | 95 | 77 | 5.0 | 15.0 | 0.00 | 0.14 | 0.00 | 41 | 1014.6 |
| 20260904193006 | 96 | 38 | 10.0 | 15.0 | 0.00 | 0.14 | 0.00 | 38 | 1014.7 |
| 20260904192506 | 96 | 97 | 5.0 | 13.0 | 0.00 | 0.14 | 0.00 | 40 | 1014.8 |
| 20260904192005 | 96 | 111 | 5.0 | 14.0 | 0.00 | 0.14 | 0.00 | 43 | 1014.8 |
| 20260904191504 | 95 | 47 | 1.0 | 14.0 | 0.00 | 0.14 | 0.00 | 41 | 1014.9 |
| 20260904191002 | 95 | 119 | 9.0 | 14.0 | 0.00 | 0.14 | 0.00 | 40 | 1015.1 |
| 20260904190503 | 95 | 107 | 8.0 | 13.0 | 0.00 | 0.14 | 0.00 | 41 | 1015.2 |
| 20260904190003 | 95 | 172 | 3.0 | 10.0 | 0.00 | 0.14 | 0.00 | 41 | 1015.3 |
| 20260904185504 | 95 | 105 | 7.0 | 13.0 | 0.00 | 0.14 | 0.00 | 41 | 1015.4 |
| 20260904185004 | 95 | 137 | 6.0 | 14.0 | 0.00 | 0.14 | 0.00 | 42 | 1015.5 |
| 20260904184505 | 95 | 135 | 6.0 | 17.0 | 0.00 | 0.14 | 0.00 | 43 | 1015.5 |
| 20260904184004 | 95 | 145 | 7.0 | 17.0 | 0.00 | 0.14 | 0.00 | 42 | 1015.4 |
| 20260904183503 | 95 | 100 | 6.0 | 14.0 | 0.00 | 0.14 | 0.00 | 43 | 1015.5 |
| 20260904183008 | 94 | 103 | 8.0 | 14.0 | 0.00 | 0.14 | 0.00 | 43 | 1015.5 |
| 20260904182508 | 94 | 131 | 7.0 | 14.0 | 0.00 | 0.14 | 0.00 | 45 | 1015.6 |
| 20260904182006 | 94 | 118 | 7.0 | 13.0 | 0.00 | 0.14 | 0.00 | 45 | 1015.7 |
| 20260904181516 | 93 | 129 | 4.0 | 13.0 | 0.00 | 0.14 | 0.00 | 48 | 1015.8 |
| 20260904181004 | 93 | 148 | 7.0 | 12.0 | 0.00 | 0.14 | 0.00 | 48 | 1015.9 |
| 20260904180511 | 93 | 74 | 6.0 | 14.0 | 0.00 | 0.14 | 0.00 | 46 | 1016.1 |
| 20260904180014 | 93 | 74 | 8.0 | 14.0 | 0.00 | 0.14 | 0.00 | 46 | 1016.1 |
| 20260904175504 | 93 | 105 | 5.0 | 10.0 | 0.00 | 0.14 | 0.00 | 47 | 1016.1 |
| 20260904175004 | 92 | 173 | 1.0 | 8.0 | 0.00 | 0.14 | 0.00 | 50 | 1016.2 |
| 20260904174507 | 91 | 128 | 4.0 | 8.0 | 0.00 | 0.14 | 0.00 | 51 | 1016.3 |
| 20260904174004 | 91 | 138 | 3.0 | 11.0 | 0.00 | 0.14 | 0.00 | 54 | 1016.3 |
| 20260904173503 | 91 | 239 | 7.0 | 11.0 | 0.00 | 0.14 | 0.00 | 53 | 1016.4 |
| 20260904173009 | 91 | 37 | 6.0 | 9.0 | 0.00 | 0.14 | 0.00 | 54 | 1016.4 |
| 20260904172507 | 90 | 130 | 2.0 | 12.0 | 0.00 | 0.14 | 0.00 | 58 | 1016.6 |
| 20260904172004 | 90 | 116 | 7.0 | 12.0 | 0.00 | 0.14 | 0.00 | 57 | 1016.7 |
| 20260904171506 | 90 | 69 | 3.0 | 9.0 | 0.00 | 0.14 | 0.00 | 56 | 1016.9 |
| 20260904171009 | 90 | 47 | 4.0 | 9.0 | 0.00 | 0.14 | 0.00 | 56 | 1017.1 |
| 20260904170512 | 90 | 94 | 1.0 | 5.0 | 0.00 | 0.14 | 0.00 | 58 | 1017.1 |
| 20260904170004 | 90 | 130 | 3.0 | 8.0 | 0.00 | 0.14 | 0.00 | 57 | 1017.0 |
| 20260904165513 | 90 | 57 | 3.0 | 11.0 | 0.00 | 0.14 | 0.00 | 56 | 1016.9 |
| 20260904165004 | 90 | 299 | 2.0 | 11.0 | 0.00 | 0.14 | 0.00 | 57 | 1017.0 |
| 20260904164526 | 90 | 144 | 3.0 | 10.0 | 0.00 | 0.14 | 0.00 | 58 | 1017.0 |
| 20260904164005 | 89 | 29 | 4.0 | 9.0 | 0.00 | 0.14 | 0.00 | 63 | 1017.1 |
| 20260904163504 | 89 | 72 | 5.0 | 9.0 | 0.00 | 0.14 | 0.00 | 58 | 1017.3 |
| 20260904163009 | 89 | 148 | 1.0 | 7.0 | 0.00 | 0.14 | 0.00 | 61 | 1017.2 |
| 20260904162503 | 88 | 360 | 3.0 | 7.0 | 0.00 | 0.14 | 0.00 | 64 | 1017.5 |
| 20260904162004 | 88 | 62 | 2.0 | 7.0 | 0.00 | 0.14 | 0.00 | 63 | 1017.6 |
| 20260904161510 | 89 | 45 | 2.0 | 7.0 | 0.00 | 0.14 | 0.00 | 62 | 1017.7 |
| 20260904161004 | 90 | 103 | 3.0 | 9.0 | 0.00 | 0.14 | 0.00 | 61 | 1017.6 |
| 20260904160510 | 90 | 67 | 2.0 | 9.0 | 0.00 | 0.14 | 0.00 | 58 | 1017.5 |
| 20260904160016 | 90 | 62 | 2.0 | 8.0 | 0.00 | 0.14 | 0.00 | 59 | 1017.5 |
| 20260904155505 | 90 | 82 | 4.0 | 8.0 | 0.00 | 0.14 | 0.00 | 61 | 1017.6 |
| 20260904155009 | 89 | 205 | 2.0 | 6.0 | 0.00 | 0.14 | 0.00 | 62 | 1017.6 |
| 20260904154515 | 89 | 360 | 2.0 | 6.0 | 0.00 | 0.14 | 0.00 | 61 | 1017.6 |
| 20260904154004 | 89 | 333 | 2.0 | 7.0 | 0.00 | 0.14 | 0.00 | 60 | 1017.6 |
| 20260904153513 | 89 | 236 | 3.0 | 7.0 | 0.00 | 0.14 | 0.00 | 62 | 1017.7 |
| 20260904153010 | 88 | 44 | 2.0 | 8.0 | 0.00 | 0.14 | 0.00 | 65 | 1017.7 |
| 20260904152504 | 88 | 67 | 3.0 | 8.0 | 0.00 | 0.14 | 0.00 | 63 | 1017.6 |
| 20260904152005 | 89 | 105 | 5.0 | 8.0 | 0.00 | 0.14 | 0.00 | 65 | 1017.5 |
| 20260904151507 | 88 | 131 | 1.0 | 7.0 | 0.00 | 0.14 | 0.00 | 64 | 1017.5 |
| 20260904151004 | 88 | 28 | 4.0 | 7.0 | 0.00 | 0.14 | 0.00 | 64 | 1017.4 |
| 20260904150508 | 88 | 114 | 3.0 | 6.0 | 0.00 | 0.14 | 0.00 | 64 | 1017.3 |
| 20260904150009 | 88 | 139 | 3.0 | 6.0 | 0.00 | 0.14 | 0.00 | 65 | 1017.3 |
| 20260904145510 | 88 | 66 | 2.0 | 6.0 | 0.00 | 0.14 | 0.00 | 66 | 1017.2 |
| 20260904145005 | 88 | 93 | 2.0 | 6.0 | 0.00 | 0.14 | 0.00 | 66 | 1017.2 |
| 20260904144522 | 87 | 116 | 3.0 | 5.0 | 0.00 | 0.14 | 0.00 | 65 | 1017.2 |
| 20260904144010 | 87 | 276 | 2.0 | 4.0 | 0.00 | 0.14 | 0.00 | 67 | 1017.3 |
| 20260904143506 | 87 | 98 | 1.0 | 3.0 | 0.00 | 0.14 | 0.00 | 67 | 1017.1 |
| 20260904143027 | 86 | 18 | 0.0 | 5.0 | 0.00 | 0.14 | 0.00 | 67 | 1017.2 |
| 20260904142510 | 86 | 126 | 2.0 | 5.0 | 0.00 | 0.14 | 0.00 | 70 | 1017.1 |
| 20260904142006 | 85 | 127 | 1.0 | 6.0 | 0.00 | 0.14 | 0.00 | 72 | 1017.1 |
| 20260904141527 | 85 | 180 | 2.0 | 6.0 | 0.00 | 0.14 | 0.00 | 70 | 1017.2 |
| 20260904141006 | 86 | 140 | 2.0 | 4.0 | 0.00 | 0.14 | 0.00 | 70 | 1017.2 |
| 20260904140503 | 85 | 167 | 1.0 | 4.0 | 0.00 | 0.14 | 0.00 | 71 | 1017.2 |
| 20260904140010 | 85 | 211 | 3.0 | 5.0 | 0.00 | 0.14 | 0.00 | 70 | 1017.2 |
| 20260904135509 | 85 | 117 | 1.0 | 5.0 | 0.00 | 0.14 | 0.00 | 72 | 1017.2 |
| 20260904135010 | 84 | 140 | 1.0 | 4.0 | 0.00 | 0.14 | 0.00 | 74 | 1017.2 |
| 20260904134519 | 84 | 188 | 1.0 | 4.0 | 0.00 | 0.14 | 0.00 | 73 | 1017.2 |
| 20260904134007 | 83 | 90 | 1.0 | 2.0 | 0.00 | 0.14 | 0.00 | 75 | 1017.1 |
| 20260904133512 | 83 | 96 | 1.0 | 5.0 | 0.00 | 0.14 | 0.00 | 76 | 1017.0 |
| 20260904133014 | 83 | 157 | 3.0 | 4.0 | 0.00 | 0.14 | 0.00 | 74 | 1017.1 |
| 20260904132514 | 83 | 159 | 1.0 | 5.0 | 0.00 | 0.14 | 0.00 | 76 | 1017.0 |
| 20260904132013 | 82 | 144 | 2.0 | 4.0 | 0.00 | 0.14 | 0.00 | 77 | 1017.0 |
| 20260904131512 | 82 | 161 | 0.0 | 4.0 | 0.00 | 0.14 | 0.00 | 77 | 1017.0 |
| 20260904131015 | 81 | 144 | 1.0 | 3.0 | 0.00 | 0.14 | 0.00 | 79 | 1016.8 |
| 20260904130515 | 81 | 229 | 1.0 | 3.0 | 0.00 | 0.14 | 0.00 | 79 | 1016.8 |
| 20260904130007 | 80 | 162 | 1.0 | 5.0 | 0.00 | 0.14 | 0.00 | 80 | 1016.8 |
| 20260904125504 | 79 | 147 | 1.0 | 5.0 | 0.00 | 0.14 | 0.00 | 81 | 1016.8 |
| 20260904125006 | 79 | 134 | 2.0 | 4.0 | 0.00 | 0.14 | 0.00 | 82 | 1016.8 |
| 20260904124503 | 78 | 140 | 2.0 | 5.0 | 0.00 | 0.14 | 0.00 | 82 | 1016.7 |
| 20260904124002 | 77 | 188 | 2.0 | 6.0 | 0.00 | 0.14 | 0.00 | 83 | 1016.7 |
| 20260904123502 | 77 | 157 | 3.0 | 6.0 | 0.00 | 0.14 | 0.00 | 84 | 1016.7 |
| 20260904123005 | 76 | 159 | 2.0 | 5.0 | 0.00 | 0.14 | 0.00 | 86 | 1016.8 |
| 20260904122503 | 75 | 175 | 2.0 | 4.0 | 0.00 | 0.14 | 0.00 | 87 | 1016.8 |
| 20260904122003 | 74 | 172 | 2.0 | 4.0 | 0.00 | 0.14 | 0.00 | 89 | 1016.6 |
| 20260904121505 | 74 | 360 | 1.0 | 4.0 | 0.00 | 0.14 | 0.00 | 91 | 1016.7 |
| 20260904121002 | 73 | 135 | 2.0 | 3.0 | 0.00 | 0.14 | 0.00 | 91 | 1016.5 |
| 20260904120503 | 73 | 148 | 1.0 | 4.0 | 0.00 | 0.14 | 0.00 | 92 | 1016.5 |
| 20260904120005 | 72 | 123 | 1.0 | 4.0 | 0.00 | 0.14 | 0.00 | 92 | 1016.4 |
| 20260904115504 | 72 | 172 | 1.0 | 3.0 | 0.00 | 0.14 | 0.00 | 92 | 1016.3 |
| 20260904115005 | 72 | 166 | 0.0 | 0.0 | 0.00 | 0.14 | 0.00 | 92 | 1016.2 |
| 20260904114504 | 72 | 168 | 0.0 | 0.0 | 0.00 | 0.14 | 0.00 | 91 | 1016.2 |
| 20260904114004 | 72 | 173 | 0.0 | 0.0 | 0.00 | 0.14 | 0.00 | 91 | 1016.2 |
| 20260904113503 | 72 | 165 | 0.0 | 0.0 | 0.00 | 0.14 | 0.00 | 91 | 1016.2 |
| 20260904113017 | 72 | 182 | 0.0 | 1.0 | 0.00 | 0.14 | 0.00 | 91 | 1016.2 |
| 20260904112504 | 72 | 169 | 1.0 | 2.0 | 0.00 | 0.14 | 0.00 | 91 | 1016.1 |
| 20260904112003 | 72 | 184 | 1.0 | 2.0 | 0.00 | 0.14 | 0.00 | 91 | 1016.1 |
| 20260904111503 | 72 | 186 | 1.0 | 2.0 | 0.00 | 0.14 | 0.00 | 90 | 1016.0 |
| 20260904111003 | 72 | 173 | 0.0 | 2.0 | 0.00 | 0.14 | 0.00 | 90 | 1016.0 |
| 20260904110503 | 72 | 182 | 0.0 | 2.0 | 0.00 | 0.14 | 0.00 | 91 | 1016.1 |
| 20260904110020 | 72 | 178 | 0.0 | 3.0 | 0.00 | 0.14 | 0.00 | 91 | 1016.0 |
| 20260904105504 | 72 | 184 | 1.0 | 3.0 | 0.00 | 0.14 | 0.00 | 91 | 1016.0 |
| 20260904105004 | 72 | 202 | 1.0 | 3.0 | 0.00 | 0.14 | 0.00 | 91 | 1016.0 |
| 20260904104511 | 72 | 181 | 2.0 | 3.0 | 0.00 | 0.14 | 0.00 | 91 | 1015.9 |
| 20260904104004 | 72 | 178 | 1.0 | 2.0 | 0.00 | 0.14 | 0.00 | 91 | 1015.9 |
| 20260904103507 | 72 | 190 | 1.0 | 2.0 | 0.00 | 0.14 | 0.00 | 91 | 1015.8 |
| 20260904103016 | 72 | 179 | 1.0 | 2.0 | 0.00 | 0.14 | 0.00 | 91 | 1015.8 |
| 20260904102504 | 72 | 190 | 1.0 | 2.0 | 0.00 | 0.14 | 0.00 | 91 | 1015.7 |
| 20260904102005 | 72 | 211 | 1.0 | 2.0 | 0.00 | 0.14 | 0.00 | 92 | 1015.7 |
| 20260904101508 | 72 | 201 | 1.0 | 2.0 | 0.00 | 0.14 | 0.00 | 92 | 1015.8 |
| 20260904101008 | 72 | 188 | 0.0 | 2.0 | 0.00 | 0.14 | 0.00 | 92 | 1015.7 |
| 20260904100508 | 72 | 360 | 0.0 | 2.0 | 0.00 | 0.14 | 0.00 | 92 | 1015.7 |
| 20260904100004 | 72 | 198 | 1.0 | 2.0 | 0.00 | 0.14 | 0.00 | 92 | 1015.6 |
| 20260904095504 | 72 | 196 | 1.0 | 2.0 | 0.00 | 0.14 | 0.00 | 92 | 1015.5 |
| 20260904095004 | 72 | 142 | 1.0 | 2.0 | 0.00 | 0.14 | 0.00 | 92 | 1015.7 |
| 20260904094507 | 72 | 149 | 1.0 | 4.0 | 0.00 | 0.14 | 0.00 | 92 | 1015.6 |
| 20260904094005 | 72 | 190 | 1.0 | 4.0 | 0.00 | 0.14 | 0.00 | 92 | 1015.7 |
| 20260904093505 | 72 | 153 | 2.0 | 4.0 | 0.00 | 0.14 | 0.00 | 92 | 1015.6 |
| 20260904093016 | 72 | 166 | 2.0 | 3.0 | 0.00 | 0.14 | 0.00 | 92 | 1015.7 |
| 20260904092508 | 72 | 139 | 1.0 | 4.0 | 0.00 | 0.14 | 0.00 | 92 | 1015.7 |
| 20260904092004 | 72 | 150 | 2.0 | 4.0 | 0.00 | 0.14 | 0.00 | 92 | 1015.6 |
| 20260904091520 | 72 | 141 | 1.0 | 3.0 | 0.00 | 0.14 | 0.00 | 92 | 1015.7 |
| 20260904091006 | 72 | 144 | 1.0 | 3.0 | 0.00 | 0.14 | 0.00 | 92 | 1015.7 |
| 20260904090509 | 71 | 137 | 2.0 | 3.0 | 0.00 | 0.14 | 0.00 | 92 | 1015.7 |
| 20260904090020 | 71 | 143 | 1.0 | 2.0 | 0.00 | 0.14 | 0.00 | 92 | 1015.7 |
| 20260904085506 | 71 | 136 | 1.0 | 2.0 | 0.00 | 0.14 | 0.00 | 92 | 1015.6 |
| 20260904085006 | 71 | 134 | 1.0 | 3.0 | 0.00 | 0.14 | 0.00 | 91 | 1015.6 |
| 20260904084506 | 71 | 140 | 1.0 | 3.0 | 0.00 | 0.14 | 0.00 | 91 | 1015.6 |
| 20260904084005 | 71 | 148 | 1.0 | 4.0 | 0.00 | 0.14 | 0.00 | 91 | 1015.5 |
| 20260904083506 | 71 | 145 | 1.0 | 4.0 | 0.00 | 0.14 | 0.00 | 91 | 1015.6 |
| 20260904083012 | 71 | 144 | 2.0 | 3.0 | 0.00 | 0.14 | 0.00 | 91 | 1015.6 |
| 20260904082507 | 71 | 148 | 2.0 | 4.0 | 0.00 | 0.14 | 0.00 | 91 | 1015.7 |
| 20260904082007 | 71 | 360 | 2.0 | 4.0 | 0.00 | 0.14 | 0.00 | 91 | 1015.6 |
| 20260904081512 | 71 | 160 | 2.0 | 4.0 | 0.00 | 0.14 | 0.00 | 91 | 1015.6 |
| 20260904081010 | 72 | 161 | 1.0 | 4.0 | 0.00 | 0.14 | 0.00 | 91 | 1015.6 |
| 20260904080512 | 72 | 160 | 1.0 | 3.0 | 0.00 | 0.14 | 0.00 | 91 | 1015.5 |
| 20260904080010 | 72 | 360 | 2.0 | 3.0 | 0.00 | 0.14 | 0.00 | 91 | 1015.5 |
| 20260904075512 | 72 | 360 | 2.0 | 4.0 | 0.00 | 0.14 | 0.00 | 91 | 1015.6 |
| 20260904075007 | 72 | 173 | 2.0 | 4.0 | 0.00 | 0.14 | 0.00 | 91 | 1015.6 |
| 20260904074521 | 72 | 180 | 1.0 | 2.0 | 0.00 | 0.14 | 0.00 | 91 | 1015.5 |
| 20260904074011 | 72 | 183 | 1.0 | 2.0 | 0.00 | 0.14 | 0.00 | 91 | 1015.5 |
| 20260904073507 | 72 | 190 | 1.0 | 2.0 | 0.00 | 0.14 | 0.00 | 91 | 1015.6 |
| 20260904073012 | 72 | 194 | 1.0 | 2.0 | 0.00 | 0.14 | 0.00 | 91 | 1015.5 |
| 20260904072507 | 72 | 198 | 1.0 | 2.0 | 0.00 | 0.14 | 0.00 | 91 | 1015.4 |
| 20260904072007 | 72 | 213 | 1.0 | 2.0 | 0.00 | 0.14 | 0.00 | 91 | 1015.5 |
| 20260904071517 | 72 | 202 | 1.0 | 2.0 | 0.00 | 0.14 | 0.00 | 91 | 1015.6 |
| 20260904071008 | 72 | 215 | 0.0 | 2.0 | 0.00 | 0.14 | 0.00 | 91 | 1015.6 |
| 20260904070516 | 72 | 210 | 0.0 | 2.0 | 0.00 | 0.14 | 0.00 | 91 | 1015.6 |
| 20260904070038 | 72 | 215 | 0.0 | 2.0 | 0.00 | 0.14 | 0.00 | 91 | 1015.6 |
| 20260904065508 | 72 | 217 | 0.0 | 2.0 | 0.00 | 0.14 | 0.00 | 91 | 1015.5 |
| 20260904065014 | 73 | 207 | 0.0 | 0.0 | 0.00 | 0.14 | 0.00 | 91 | 1015.6 |
| 20260904064521 | 73 | 209 | 0.0 | 0.0 | 0.00 | 0.14 | 0.00 | 91 | 1015.6 |
| 20260904064005 | 73 | 197 | 0.0 | 0.0 | 0.00 | 0.14 | 0.00 | 91 | 1015.8 |
| 20260904063510 | 73 | 196 | 0.0 | 0.0 | 0.00 | 0.14 | 0.00 | 91 | 1015.9 |
| 20260904063006 | 73 | 192 | 0.0 | 0.0 | 0.00 | 0.14 | 0.00 | 91 | 1015.8 |
| 20260904062503 | 73 | 207 | 0.0 | 2.0 | 0.00 | 0.14 | 0.00 | 91 | 1015.9 |
| 20260904062003 | 73 | 180 | 0.0 | 2.0 | 0.00 | 0.14 | 0.00 | 91 | 1015.8 |
| 20260904061515 | 73 | 333 | 0.0 | 4.0 | 0.00 | 0.14 | 0.00 | 91 | 1015.8 |
| 20260904061008 | 72 | 344 | 1.0 | 4.0 | 0.00 | 0.14 | 0.00 | 91 | 1015.8 |
| 20260904060503 | 72 | 346 | 1.0 | 3.0 | 0.00 | 0.14 | 0.00 | 91 | 1015.9 |
| 20260904060003 | 73 | 345 | 1.0 | 3.0 | 0.00 | 0.14 | 0.00 | 91 | 1016.0 |
| 20260904055504 | 73 | 346 | 1.0 | 3.0 | 0.00 | 0.14 | 0.00 | 91 | 1016.0 |
| 20260904055002 | 73 | 207 | 1.0 | 4.0 | 0.00 | 0.14 | 0.00 | 91 | 1016.0 |
| 20260904054504 | 73 | 167 | 1.0 | 4.0 | 0.00 | 0.14 | 0.00 | 90 | 1015.9 |
| 20260904054005 | 73 | 150 | 1.0 | 2.0 | 0.00 | 0.14 | 0.00 | 90 | 1015.9 |
| 20260904053503 | 73 | 150 | 0.0 | 2.0 | 0.00 | 0.14 | 0.00 | 90 | 1015.9 |
| 20260904053006 | 73 | 150 | 0.0 | 2.0 | 0.00 | 0.14 | 0.00 | 91 | 1015.9 |
| 20260904052503 | 73 | 150 | 0.0 | 1.0 | 0.00 | 0.14 | 0.00 | 91 | 1016.1 |
| 20260904052004 | 73 | 152 | 0.0 | 2.0 | 0.00 | 0.14 | 0.00 | 91 | 1016.0 |
| 20260904051509 | 73 | 150 | 0.0 | 2.0 | 0.00 | 0.14 | 0.00 | 91 | 1016.0 |
| 20260904051010 | 73 | 150 | 0.0 | 0.0 | 0.00 | 0.14 | 0.00 | 90 | 1015.9 |
| 20260904050505 | 73 | 150 | 0.0 | 0.0 | 0.00 | 0.14 | 0.00 | 90 | 1015.9 |
| 20260904050012 | 73 | 150 | 0.0 | 0.0 | 0.00 | 0.14 | 0.00 | 90 | 1015.8 |
| 20260904045510 | 73 | 149 | 0.0 | 0.0 | 0.00 | 0.14 | 0.14 | 90 | 1015.9 |
| 20260904045002 | 73 | 149 | 0.0 | 1.0 | 0.00 | 0.14 | 0.14 | 90 | 1015.9 |
| 20260904044504 | 73 | 149 | 0.0 | 2.0 | 0.00 | 0.14 | 0.14 | 91 | 1015.9 |
| 20260904044003 | 73 | 149 | 0.0 | 2.0 | 0.00 | 0.14 | 0.14 | 90 | 1015.9 |
| 20260904043503 | 73 | 149 | 0.0 | 2.0 | 0.00 | 0.14 | 0.14 | 90 | 1015.8 |
| 20260904043011 | 73 | 149 | 1.0 | 2.0 | 0.00 | 0.14 | 0.14 | 90 | 1015.7 |
| 20260904042505 | 73 | 139 | 1.0 | 2.0 | 0.00 | 0.14 | 0.14 | 90 | 1015.9 |
| 20260904042004 | 73 | 138 | 1.0 | 2.0 | 0.00 | 0.14 | 0.14 | 90 | 1015.8 |
| 20260904041507 | 73 | 137 | 1.0 | 2.0 | 0.00 | 0.14 | 0.14 | 90 | 1015.8 |
| 20260904041004 | 73 | 137 | 1.0 | 1.0 | 0.00 | 0.14 | 0.14 | 90 | 1016.0 |
| 20260904040503 | 74 | 137 | 1.0 | 2.0 | 0.00 | 0.14 | 0.14 | 90 | 1016.0 |
| 20260904040014 | 74 | 137 | 1.0 | 2.0 | 0.00 | 0.14 | 0.14 | 90 | 1015.9 |
| 20260904035507 | 74 | 137 | 0.0 | 2.0 | 0.00 | 0.14 | 0.14 | 90 | 1015.9 |
| 20260904035008 | 74 | 137 | 1.0 | 4.0 | 0.00 | 0.14 | 0.14 | 90 | 1015.9 |
| 20260904034534 | 74 | 137 | 2.0 | 4.0 | 0.00 | 0.14 | 0.14 | 90 | 1015.9 |
| 20260904034003 | 74 | 130 | 1.0 | 3.0 | 0.00 | 0.14 | 0.14 | 90 | 1016.0 |
| 20260904033505 | 74 | 116 | 2.0 | 3.0 | 0.00 | 0.14 | 0.14 | 90 | 1016.1 |
| 20260904033003 | 74 | 124 | 2.0 | 3.0 | 0.00 | 0.14 | 0.14 | 90 | 1016.2 |
| 20260904032503 | 74 | 135 | 1.0 | 3.0 | 0.00 | 0.14 | 0.14 | 90 | 1016.2 |
| 20260904032004 | 74 | 103 | 2.0 | 3.0 | 0.00 | 0.14 | 0.14 | 90 | 1016.1 |
| 20260904031506 | 74 | 75 | 0.0 | 3.0 | 0.00 | 0.14 | 0.14 | 90 | 1016.1 |
| 20260904031004 | 74 | 74 | 1.0 | 3.0 | 0.00 | 0.14 | 0.14 | 90 | 1016.1 |
| 20260904030506 | 75 | 38 | 2.0 | 2.0 | 0.00 | 0.14 | 0.14 | 90 | 1016.1 |
| 20260904030004 | 75 | 38 | 1.0 | 2.0 | 0.00 | 0.14 | 0.14 | 90 | 1016.0 |
| 20260904025508 | 75 | 38 | 1.0 | 2.0 | 0.00 | 0.14 | 0.14 | 90 | 1016.0 |
| 20260904025004 | 75 | 38 | 1.0 | 2.0 | 0.00 | 0.14 | 0.14 | 89 | 1016.0 |
| 20260904024504 | 75 | 38 | 1.0 | 2.0 | 0.00 | 0.14 | 0.14 | 89 | 1016.1 |
| 20260904024007 | 75 | 38 | 0.0 | 3.0 | 0.00 | 0.14 | 0.14 | 89 | 1016.1 |
| 20260904023505 | 75 | 38 | 1.0 | 3.0 | 0.00 | 0.14 | 0.14 | 89 | 1016.1 |
| 20260904023019 | 75 | 38 | 1.0 | 3.0 | 0.00 | 0.14 | 0.14 | 89 | 1016.0 |
| 20260904022507 | 75 | 38 | 0.0 | 2.0 | 0.00 | 0.14 | 0.14 | 89 | 1016.0 |
| 20260904022005 | 76 | 38 | 1.0 | 2.0 | 0.00 | 0.14 | 0.14 | 89 | 1016.0 |
| 20260904021504 | 76 | 38 | 0.0 | 3.0 | 0.00 | 0.14 | 0.14 | 89 | 1015.9 |
| 20260904021004 | 76 | 38 | 1.0 | 3.0 | 0.00 | 0.14 | 0.14 | 89 | 1015.9 |
| 20260904020504 | 76 | 38 | 1.0 | 3.0 | 0.00 | 0.14 | 0.14 | 89 | 1015.9 |
| 20260904020006 | 76 | 38 | 2.0 | 3.0 | 0.00 | 0.14 | 0.14 | 89 | 1015.9 |
| 20260904015508 | 76 | 38 | 2.0 | 3.0 | 0.00 | 0.14 | 0.14 | 89 | 1015.8 |
| 20260904015009 | 76 | 38 | 1.0 | 3.0 | 0.00 | 0.14 | 0.14 | 89 | 1015.7 |
| 20260904014510 | 76 | 38 | 1.0 | 4.0 | 0.00 | 0.14 | 0.14 | 88 | 1015.6 |
| 20260904014006 | 76 | 39 | 2.0 | 4.0 | 0.00 | 0.14 | 0.14 | 89 | 1015.6 |
| 20260904013506 | 77 | 9 | 2.0 | 4.0 | 0.00 | 0.14 | 0.14 | 89 | 1015.5 |
| 20260904013009 | 77 | 28 | 2.0 | 4.0 | 0.00 | 0.14 | 0.14 | 89 | 1015.5 |
| 20260904012510 | 77 | 42 | 2.0 | 3.0 | 0.00 | 0.14 | 0.14 | 89 | 1015.7 |
| 20260904012011 | 77 | 145 | 1.0 | 3.0 | 0.00 | 0.14 | 0.14 | 89 | 1015.7 |
| 20260904011528 | 77 | 96 | 2.0 | 3.0 | 0.00 | 0.14 | 0.14 | 89 | 1015.5 |
| 20260904011012 | 77 | 74 | 2.0 | 3.0 | 0.00 | 0.14 | 0.14 | 89 | 1015.5 |
| 20260904010504 | 78 | 30 | 2.0 | 3.0 | 0.00 | 0.14 | 0.14 | 89 | 1015.1 |
| 20260904010008 | 78 | 28 | 2.0 | 4.0 | 0.00 | 0.14 | 0.14 | 88 | 1015.1 |
| 20260904005506 | 78 | 14 | 3.0 | 4.0 | 0.00 | 0.14 | 0.14 | 88 | 1015.4 |
| 20260904005005 | 78 | 19 | 2.0 | 3.0 | 0.00 | 0.14 | 0.14 | 88 | 1015.2 |
| 20260904004511 | 79 | 9 | 2.0 | 2.0 | 0.00 | 0.14 | 0.14 | 87 | 1015.2 |
| 20260904004008 | 79 | 9 | 1.0 | 2.0 | 0.00 | 0.14 | 0.14 | 86 | 1015.1 |
| 20260904003511 | 79 | 9 | 1.0 | 3.0 | 0.00 | 0.14 | 0.14 | 86 | 1015.1 |
| 20260904003015 | 80 | 333 | 2.0 | 3.0 | 0.00 | 0.14 | 0.14 | 84 | 1015.1 |
| 20260904002510 | 80 | 15 | 2.0 | 3.0 | 0.00 | 0.14 | 0.14 | 84 | 1015.1 |
| 20260904002003 | 81 | 18 | 1.0 | 2.0 | 0.00 | 0.14 | 0.14 | 83 | 1015.2 |
| 20260904001526 | 81 | 18 | 1.0 | 2.0 | 0.00 | 0.14 | 0.14 | 83 | 1015.1 |
| 20260904001008 | 82 | 17 | 1.0 | 2.0 | 0.00 | 0.14 | 0.14 | 81 | 1015.1 |
| 20260904000514 | 82 | 18 | 0.0 | 2.0 | 0.00 | 0.14 | 0.14 | 81 | 1015.1 |
| 20260904000037 | 83 | 17 | 0.0 | 4.0 | 0.00 | 0.14 | 0.14 | 81 | 1015.1 |
| 20260903235509 | 83 | 348 | 1.0 | 5.0 | 0.00 | 0.14 | 0.14 | 80 | 1015.1 |
| 20260903235006 | 84 | 348 | 3.0 | 5.0 | 0.00 | 0.14 | 0.14 | 76 | 1015.0 |
| 20260903234514 | 84 | 301 | 0.0 | 3.0 | 0.00 | 0.14 | 0.14 | 79 | 1015.0 |
| 20260903234004 | 84 | 300 | 1.0 | 5.0 | 0.00 | 0.14 | 0.14 | 79 | 1015.0 |
| 20260903233505 | 85 | 337 | 1.0 | 5.0 | 0.00 | 0.14 | 0.14 | 78 | 1014.8 |
| 20260903233019 | 85 | 325 | 3.0 | 5.0 | 0.00 | 0.14 | 0.14 | 77 | 1014.8 |
| 20260903232510 | 85 | 317 | 1.0 | 4.0 | 0.00 | 0.14 | 0.14 | 78 | 1014.7 |
| 20260903232010 | 85 | 326 | 2.0 | 4.0 | 0.00 | 0.14 | 0.14 | 79 | 1014.9 |
| 20260903231513 | 85 | 348 | 2.0 | 2.0 | 0.00 | 0.14 | 0.14 | 83 | 1014.9 |
| 20260903231011 | 85 | 136 | 0.0 | 2.0 | 0.00 | 0.14 | 0.14 | 83 | 1014.9 |
| 20260903230513 | 85 | 136 | 0.0 | 0.0 | 0.00 | 0.14 | 0.14 | 84 | 1014.6 |
| 20260903230014 | 85 | 136 | 0.0 | 0.0 | 0.00 | 0.14 | 0.14 | 85 | 1014.6 |
| 20260903225514 | 84 | 194 | 0.0 | 2.0 | 0.00 | 0.14 | 0.14 | 85 | 1014.6 |
| 20260903225009 | 84 | 180 | 0.0 | 2.0 | 0.00 | 0.14 | 0.14 | 85 | 1014.6 |
| 20260903224530 | 83 | 136 | 0.0 | 2.0 | 0.00 | 0.14 | 0.14 | 84 | 1014.6 |
| 20260903224010 | 84 | 116 | 1.0 | 2.0 | 0.00 | 0.14 | 0.14 | 83 | 1014.5 |
| 20260903223508 | 84 | 115 | 1.0 | 2.0 | 0.00 | 0.14 | 0.14 | 82 | 1014.5 |
| 20260903223016 | 85 | 95 | 0.0 | 1.0 | 0.00 | 0.14 | 0.14 | 83 | 1014.5 |
| 20260903222510 | 85 | 94 | 0.0 | 2.0 | 0.00 | 0.14 | 0.14 | 84 | 1014.5 |
| 20260903222004 | 85 | 96 | 1.0 | 2.0 | 0.01 | 0.14 | 0.14 | 83 | 1014.4 |
| 20260903221515 | 85 | 243 | 0.0 | 2.0 | 0.06 | 0.15 | 0.14 | 83 | 1014.4 |
| 20260903221009 | 84 | 281 | 1.0 | 3.0 | 0.14 | 0.20 | 0.14 | 82 | 1014.4 |
| 20260903220512 | 83 | 276 | 1.0 | 3.0 | 0.14 | 0.20 | 0.14 | 83 | 1014.3 |
| 20260903220023 | 82 | 305 | 0.0 | 2.0 | 0.14 | 0.20 | 0.14 | 87 | 1014.3 |
| 20260903215508 | 81 | 328 | 0.0 | 2.0 | 0.14 | 0.20 | 0.14 | 87 | 1014.3 |
| 20260903215016 | 80 | 247 | 1.0 | 3.0 | 0.14 | 0.20 | 0.14 | 87 | 1014.3 |
| 20260903214529 | 80 | 348 | 2.0 | 3.0 | 0.14 | 0.20 | 0.14 | 84 | 1014.2 |
| 20260903214005 | 80 | 66 | 1.0 | 4.0 | 0.14 | 0.20 | 0.14 | 83 | 1014.3 |
| 20260903213511 | 81 | 5 | 3.0 | 7.0 | 0.14 | 0.20 | 0.14 | 79 | 1014.4 |
| 20260903213029 | 82 | 42 | 0.0 | 7.0 | 0.14 | 0.20 | 0.14 | 77 | 1014.4 |
| 20260903212515 | 85 | 274 | 5.0 | 25.0 | 0.14 | 0.20 | 0.14 | 70 | 1014.4 |
| 20260903212012 | 87 | 271 | 5.0 | 26.0 | 0.13 | 0.19 | 0.13 | 55 | 1014.7 |
| 20260903211519 | 92 | 109 | 11.0 | 26.0 | 0.08 | 0.14 | 0.08 | 59 | 1014.7 |
| 20260903211011 | 92 | 156 | 1.0 | 5.0 | 0.00 | 0.06 | 0.00 | 49 | 1014.5 |
| 20260903210509 | 92 | 147 | 1.0 | 5.0 | 0.00 | 0.06 | 0.00 | 50 | 1014.5 |
| 20260903210018 | 93 | 162 | 1.0 | 8.0 | 0.00 | 0.06 | 0.00 | 48 | 1014.4 |
| 20260903205515 | 93 | 82 | 1.0 | 10.0 | 0.00 | 0.06 | 0.00 | 46 | 1014.4 |
| 20260903205012 | 94 | 87 | 2.0 | 10.0 | 0.00 | 0.06 | 0.00 | 46 | 1014.4 |
| 20260903204526 | 94 | 137 | 5.0 | 10.0 | 0.00 | 0.06 | 0.00 | 45 | 1014.5 |
| 20260903204014 | 95 | 117 | 5.0 | 8.0 | 0.00 | 0.06 | 0.00 | 43 | 1014.5 |
| 20260903203514 | 95 | 180 | 3.0 | 5.0 | 0.00 | 0.06 | 0.00 | 43 | 1014.5 |
| 20260903203045 | 94 | 181 | 2.0 | 7.0 | 0.00 | 0.06 | 0.00 | 46 | 1014.5 |
| 20260903202516 | 94 | 130 | 4.0 | 11.0 | 0.00 | 0.06 | 0.00 | 46 | 1014.7 |
| 20260903202017 | 94 | 111 | 4.0 | 13.0 | 0.00 | 0.06 | 0.00 | 45 | 1014.7 |
| 20260903201535 | 96 | 113 | 7.0 | 13.0 | 0.00 | 0.06 | 0.00 | 44 | 1014.9 |